Year,Month,Day,Hour,Minute,Value (Times are PST for temperature in C)
2018,07,18,00,00,17.30
2018,07,18,00,01,17.20
2018,07,18,00,02,17.20
2018,07,18,00,03,17.10
2018,07,18,00,04,17.10
2018,07,18,00,05,17.10
2018,07,18,00,06,17.00
2018,07,18,00,07,17.00
2018,07,18,00,08,17.00
2018,07,18,00,09,16.90
2018,07,18,00,10,16.90
2018,07,18,00,11,16.90
2018,07,18,00,12,16.90
2018,07,18,00,13,16.90
2018,07,18,00,14,16.80
2018,07,18,00,15,16.80
2018,07,18,00,16,16.80
2018,07,18,00,17,16.80
2018,07,18,00,18,16.80
2018,07,18,00,19,16.70
2018,07,18,00,20,16.70
2018,07,18,00,21,16.70
2018,07,18,00,22,16.70
2018,07,18,00,23,16.70
2018,07,18,00,24,16.60
2018,07,18,00,25,16.60
2018,07,18,00,26,16.60
2018,07,18,00,27,16.60
2018,07,18,00,28,16.60
2018,07,18,00,29,16.60
2018,07,18,00,30,16.60
2018,07,18,00,31,16.60
2018,07,18,00,32,16.60
2018,07,18,00,33,16.60
2018,07,18,00,34,16.60
2018,07,18,00,35,16.60
2018,07,18,00,36,16.60
2018,07,18,00,37,16.60
2018,07,18,00,38,16.60
2018,07,18,00,39,16.60
2018,07,18,00,40,16.60
2018,07,18,00,41,16.60
2018,07,18,00,42,16.60
2018,07,18,00,43,16.60
2018,07,18,00,44,16.60
2018,07,18,00,45,16.70
2018,07,18,00,46,16.60
2018,07,18,00,47,16.60
2018,07,18,00,48,16.60
2018,07,18,00,49,16.70
2018,07,18,00,50,16.70
2018,07,18,00,51,16.60
2018,07,18,00,52,16.60
2018,07,18,00,53,16.60
2018,07,18,00,54,16.60
2018,07,18,00,55,16.60
2018,07,18,00,56,16.60
2018,07,18,00,57,16.60
2018,07,18,00,58,16.60
2018,07,18,00,59,16.60
2018,07,18,01,00,16.60
2018,07,18,01,01,16.60
2018,07,18,01,02,16.60
2018,07,18,01,03,16.60
2018,07,18,01,04,16.60
2018,07,18,01,05,16.60
2018,07,18,01,06,16.60
2018,07,18,01,07,16.60
2018,07,18,01,08,16.60
2018,07,18,01,09,16.50
2018,07,18,01,10,16.50
2018,07,18,01,11,16.50
2018,07,18,01,12,16.50
2018,07,18,01,13,16.50
2018,07,18,01,14,16.50
2018,07,18,01,15,16.40
2018,07,18,01,16,16.40
2018,07,18,01,17,16.40
2018,07,18,01,18,16.40
2018,07,18,01,19,16.40
2018,07,18,01,20,16.40
2018,07,18,01,21,16.40
2018,07,18,01,22,16.40
2018,07,18,01,23,16.40
2018,07,18,01,24,16.40
2018,07,18,01,25,16.40
2018,07,18,01,26,16.40
2018,07,18,01,27,16.40
2018,07,18,01,28,16.40
2018,07,18,01,29,16.40
2018,07,18,01,30,16.40
2018,07,18,01,31,16.40
2018,07,18,01,32,16.40
2018,07,18,01,33,16.40
2018,07,18,01,34,16.40
2018,07,18,01,35,16.40
2018,07,18,01,36,16.40
2018,07,18,01,37,16.40
2018,07,18,01,38,16.40
2018,07,18,01,39,16.40
2018,07,18,01,40,16.40
2018,07,18,01,41,16.50
2018,07,18,01,42,16.50
2018,07,18,01,43,16.50
2018,07,18,01,44,16.50
2018,07,18,01,45,16.50
2018,07,18,01,46,16.50
2018,07,18,01,47,16.50
2018,07,18,01,48,16.50
2018,07,18,01,49,16.60
2018,07,18,01,50,16.60
2018,07,18,01,51,16.60
2018,07,18,01,52,16.60
2018,07,18,01,53,16.60
2018,07,18,01,54,16.60
2018,07,18,01,55,16.50
2018,07,18,01,56,16.50
2018,07,18,01,57,16.50
2018,07,18,01,58,16.50
2018,07,18,01,59,16.40
2018,07,18,02,00,16.40
2018,07,18,02,01,16.40
2018,07,18,02,02,16.40
2018,07,18,02,03,16.40
2018,07,18,02,04,16.40
2018,07,18,02,05,16.40
2018,07,18,02,06,16.30
2018,07,18,02,07,16.30
2018,07,18,02,08,16.30
2018,07,18,02,09,16.30
2018,07,18,02,10,16.30
2018,07,18,02,11,16.30
2018,07,18,02,12,16.20
2018,07,18,02,13,16.20
2018,07,18,02,14,16.20
2018,07,18,02,15,16.20
2018,07,18,02,16,16.20
2018,07,18,02,17,16.10
2018,07,18,02,18,16.10
2018,07,18,02,19,16.00
2018,07,18,02,20,16.00
2018,07,18,02,21,15.90
2018,07,18,02,22,15.90
2018,07,18,02,23,15.90
2018,07,18,02,24,15.80
2018,07,18,02,25,15.80
2018,07,18,02,26,15.70
2018,07,18,02,27,15.60
2018,07,18,02,28,15.60
2018,07,18,02,29,15.50
2018,07,18,02,30,15.50
2018,07,18,02,31,15.40
2018,07,18,02,32,15.40
2018,07,18,02,33,15.40
2018,07,18,02,34,15.30
2018,07,18,02,35,15.30
2018,07,18,02,36,15.30
2018,07,18,02,37,15.20
2018,07,18,02,38,15.20
2018,07,18,02,39,15.20
2018,07,18,02,40,15.20
2018,07,18,02,41,15.10
2018,07,18,02,42,15.10
2018,07,18,02,43,15.10
2018,07,18,02,44,15.10
2018,07,18,02,45,15.10
2018,07,18,02,46,15.10
2018,07,18,02,47,15.00
2018,07,18,02,48,15.00
2018,07,18,02,49,15.00
2018,07,18,02,50,15.00
2018,07,18,02,51,14.90
2018,07,18,02,52,14.90
2018,07,18,02,53,14.90
2018,07,18,02,54,14.90
2018,07,18,02,55,14.90
2018,07,18,02,56,14.90
2018,07,18,02,57,14.90
2018,07,18,02,58,14.90
2018,07,18,02,59,14.80
2018,07,18,03,00,14.80
2018,07,18,03,01,14.80
2018,07,18,03,02,14.80
2018,07,18,03,03,14.80
2018,07,18,03,04,14.80
2018,07,18,03,05,14.80
2018,07,18,03,06,14.80
2018,07,18,03,07,14.80
2018,07,18,03,08,14.80
2018,07,18,03,09,14.80
2018,07,18,03,10,14.80
2018,07,18,03,11,14.70
2018,07,18,03,12,14.70
2018,07,18,03,13,14.70
2018,07,18,03,14,14.70
2018,07,18,03,15,14.70
2018,07,18,03,16,14.60
2018,07,18,03,17,14.60
2018,07,18,03,18,14.60
2018,07,18,03,19,14.60
2018,07,18,03,20,14.60
2018,07,18,03,21,14.50
2018,07,18,03,22,14.50
2018,07,18,03,23,14.50
2018,07,18,03,24,14.50
2018,07,18,03,25,14.50
2018,07,18,03,26,14.50
2018,07,18,03,27,14.50
2018,07,18,03,28,14.50
2018,07,18,03,29,14.50
2018,07,18,03,30,14.50
2018,07,18,03,31,14.50
2018,07,18,03,32,14.50
2018,07,18,03,33,14.50
2018,07,18,03,34,14.50
2018,07,18,03,35,14.50
2018,07,18,03,36,14.50
2018,07,18,03,37,14.50
2018,07,18,03,38,14.50
2018,07,18,03,39,14.50
2018,07,18,03,40,14.50
2018,07,18,03,41,14.50
2018,07,18,03,42,14.50
2018,07,18,03,43,14.40
2018,07,18,03,44,14.40
2018,07,18,03,45,14.40
2018,07,18,03,46,14.40
2018,07,18,03,47,14.30
2018,07,18,03,48,14.30
2018,07,18,03,49,14.30
2018,07,18,03,50,14.20
2018,07,18,03,51,14.20
2018,07,18,03,52,14.20
2018,07,18,03,53,14.10
2018,07,18,03,54,14.10
2018,07,18,03,55,14.10
2018,07,18,03,56,14.10
2018,07,18,03,57,14.10
2018,07,18,03,58,14.10
2018,07,18,03,59,14.00
2018,07,18,04,00,14.00
2018,07,18,04,01,14.00
2018,07,18,04,02,14.00
2018,07,18,04,03,14.00
2018,07,18,04,04,14.00
2018,07,18,04,05,14.00
2018,07,18,04,06,13.90
2018,07,18,04,07,13.90
2018,07,18,04,08,13.90
2018,07,18,04,09,13.90
2018,07,18,04,10,13.90
2018,07,18,04,11,13.80
2018,07,18,04,12,13.80
2018,07,18,04,13,13.80
2018,07,18,04,14,13.80
2018,07,18,04,15,13.80
2018,07,18,04,16,13.80
2018,07,18,04,17,13.80
2018,07,18,04,18,13.70
2018,07,18,04,19,13.70
2018,07,18,04,20,13.70
2018,07,18,04,21,13.70
2018,07,18,04,22,13.70
2018,07,18,04,23,13.60
2018,07,18,04,24,13.60
2018,07,18,04,25,13.60
2018,07,18,04,26,13.50
2018,07,18,04,27,13.50
2018,07,18,04,28,13.50
2018,07,18,04,29,13.40
2018,07,18,04,30,13.40
2018,07,18,04,31,13.40
2018,07,18,04,32,13.30
2018,07,18,04,33,13.30
2018,07,18,04,34,13.30
2018,07,18,04,35,13.30
2018,07,18,04,36,13.30
2018,07,18,04,37,13.20
2018,07,18,04,38,13.20
2018,07,18,04,39,13.20
2018,07,18,04,40,13.20
2018,07,18,04,41,13.10
2018,07,18,04,42,13.10
2018,07,18,04,43,13.10
2018,07,18,04,44,13.00
2018,07,18,04,45,13.00
2018,07,18,04,46,13.00
2018,07,18,04,47,12.90
2018,07,18,04,48,12.90
2018,07,18,04,49,12.80
2018,07,18,04,50,12.80
2018,07,18,04,51,12.80
2018,07,18,04,52,12.70
2018,07,18,04,53,12.70
2018,07,18,04,54,12.70
2018,07,18,04,55,12.70
2018,07,18,04,56,12.60
2018,07,18,04,57,12.60
2018,07,18,04,58,12.60
2018,07,18,04,59,12.60
2018,07,18,05,00,12.60
2018,07,18,05,01,12.60
2018,07,18,05,02,12.60
2018,07,18,05,03,12.60
2018,07,18,05,04,12.60
2018,07,18,05,05,12.60
2018,07,18,05,06,12.60
2018,07,18,05,07,12.50
2018,07,18,05,08,12.60
2018,07,18,05,09,12.60
2018,07,18,05,10,12.60
2018,07,18,05,11,12.60
2018,07,18,05,12,12.60
2018,07,18,05,13,12.60
2018,07,18,05,14,12.60
2018,07,18,05,15,12.60
2018,07,18,05,16,12.60
2018,07,18,05,17,12.60
2018,07,18,05,18,12.60
2018,07,18,05,19,12.60
2018,07,18,05,20,12.60
2018,07,18,05,21,12.60
2018,07,18,05,22,12.60
2018,07,18,05,23,12.60
2018,07,18,05,24,12.60
2018,07,18,05,25,12.60
2018,07,18,05,26,12.60
2018,07,18,05,27,12.60
2018,07,18,05,28,12.60
2018,07,18,05,29,12.50
2018,07,18,05,30,12.50
2018,07,18,05,31,12.50
2018,07,18,05,32,12.50
2018,07,18,05,33,12.50
2018,07,18,05,34,12.40
2018,07,18,05,35,12.40
2018,07,18,05,36,12.40
2018,07,18,05,37,12.40
2018,07,18,05,38,12.30
2018,07,18,05,39,12.30
2018,07,18,05,40,12.30
2018,07,18,05,41,12.30
2018,07,18,05,42,12.20
2018,07,18,05,43,12.20
2018,07,18,05,44,12.20
2018,07,18,05,45,12.20
2018,07,18,05,46,12.20
2018,07,18,05,47,12.20
2018,07,18,05,48,12.20
2018,07,18,05,49,12.10
2018,07,18,05,50,12.10
2018,07,18,05,51,12.10
2018,07,18,05,52,12.10
2018,07,18,05,53,12.10
2018,07,18,05,54,12.10
2018,07,18,05,55,12.10
2018,07,18,05,56,12.10
2018,07,18,05,57,12.10
2018,07,18,05,58,12.10
2018,07,18,05,59,12.10
2018,07,18,06,00,12.10
2018,07,18,06,01,12.10
2018,07,18,06,02,12.10
2018,07,18,06,03,12.10
2018,07,18,06,04,12.10
2018,07,18,06,05,12.10
2018,07,18,06,06,12.10
2018,07,18,06,07,12.10
2018,07,18,06,08,12.10
2018,07,18,06,09,12.10
2018,07,18,06,10,12.20
2018,07,18,06,11,12.20
2018,07,18,06,12,12.20
2018,07,18,06,13,12.20
2018,07,18,06,14,12.20
2018,07,18,06,15,12.20
2018,07,18,06,16,12.20
2018,07,18,06,17,12.20
2018,07,18,06,18,12.20
2018,07,18,06,19,12.20
2018,07,18,06,20,12.20
2018,07,18,06,21,12.20
2018,07,18,06,22,12.10
2018,07,18,06,23,12.10
2018,07,18,06,24,12.10
2018,07,18,06,25,12.10
2018,07,18,06,26,12.10
2018,07,18,06,27,12.10
2018,07,18,06,28,12.10
2018,07,18,06,29,12.10
2018,07,18,06,30,12.10
2018,07,18,06,31,12.10
2018,07,18,06,32,12.10
2018,07,18,06,33,12.00
2018,07,18,06,34,12.10
2018,07,18,06,35,12.00
2018,07,18,06,36,12.00
2018,07,18,06,37,12.00
2018,07,18,06,38,12.00
2018,07,18,06,39,12.00
2018,07,18,06,40,12.00
2018,07,18,06,41,12.00
2018,07,18,06,42,12.00
2018,07,18,06,43,12.00
2018,07,18,06,44,12.10
2018,07,18,06,45,12.10
2018,07,18,06,46,12.10
2018,07,18,06,47,12.10
2018,07,18,06,48,12.10
2018,07,18,06,49,12.10
2018,07,18,06,50,12.10
2018,07,18,06,51,12.10
2018,07,18,06,52,12.10
2018,07,18,06,53,12.20
2018,07,18,06,54,12.20
2018,07,18,06,55,12.20
2018,07,18,06,56,12.20
2018,07,18,06,57,12.20
2018,07,18,06,58,12.20
2018,07,18,06,59,12.20
2018,07,18,07,00,12.20
2018,07,18,07,01,12.20
2018,07,18,07,02,12.20
2018,07,18,07,03,12.20
2018,07,18,07,04,12.20
2018,07,18,07,05,12.30
2018,07,18,07,06,12.30
2018,07,18,07,07,12.30
2018,07,18,07,08,12.30
2018,07,18,07,09,12.30
2018,07,18,07,10,12.30
2018,07,18,07,11,12.30
2018,07,18,07,12,12.40
2018,07,18,07,13,12.40
2018,07,18,07,14,12.40
2018,07,18,07,15,12.40
2018,07,18,07,16,12.40
2018,07,18,07,17,12.50
2018,07,18,07,18,12.50
2018,07,18,07,19,12.50
2018,07,18,07,20,12.50
2018,07,18,07,21,12.50
2018,07,18,07,22,12.60
2018,07,18,07,23,12.60
2018,07,18,07,24,12.60
2018,07,18,07,25,12.60
2018,07,18,07,26,12.60
2018,07,18,07,27,12.60
2018,07,18,07,28,12.60
2018,07,18,07,29,12.60
2018,07,18,07,30,12.60
2018,07,18,07,31,12.60
2018,07,18,07,32,12.50
2018,07,18,07,33,12.50
2018,07,18,07,34,12.50
2018,07,18,07,35,12.50
2018,07,18,07,36,12.50
2018,07,18,07,37,12.50
2018,07,18,07,38,12.50
2018,07,18,07,39,12.50
2018,07,18,07,40,12.50
2018,07,18,07,41,12.50
2018,07,18,07,42,12.50
2018,07,18,07,43,12.50
2018,07,18,07,44,12.50
2018,07,18,07,45,12.50
2018,07,18,07,46,12.50
2018,07,18,07,47,12.50
2018,07,18,07,48,12.50
2018,07,18,07,49,12.50
2018,07,18,07,50,12.50
2018,07,18,07,51,12.50
2018,07,18,07,52,12.60
2018,07,18,07,53,12.60
2018,07,18,07,54,12.60
2018,07,18,07,55,12.60
2018,07,18,07,56,12.50
2018,07,18,07,57,12.50
2018,07,18,07,58,12.50
2018,07,18,07,59,12.50
2018,07,18,08,00,12.50
2018,07,18,08,01,12.50
2018,07,18,08,02,12.50
2018,07,18,08,03,12.50
2018,07,18,08,04,12.40
2018,07,18,08,05,12.40
2018,07,18,08,06,12.40
2018,07,18,08,07,12.40
2018,07,18,08,08,12.40
2018,07,18,08,09,12.40
2018,07,18,08,10,12.40
2018,07,18,08,11,12.40
2018,07,18,08,12,12.40
2018,07,18,08,13,12.40
2018,07,18,08,14,12.40
2018,07,18,08,15,12.40
2018,07,18,08,16,12.40
2018,07,18,08,17,12.40
2018,07,18,08,18,12.40
2018,07,18,08,19,12.40
2018,07,18,08,20,12.40
2018,07,18,08,21,12.30
2018,07,18,08,22,12.30
2018,07,18,08,23,12.30
2018,07,18,08,24,12.30
2018,07,18,08,25,12.30
2018,07,18,08,26,12.30
2018,07,18,08,27,12.30
2018,07,18,08,28,12.30
2018,07,18,08,29,12.40
2018,07,18,08,30,12.40
2018,07,18,08,31,12.40
2018,07,18,08,32,12.40
2018,07,18,08,33,12.40
2018,07,18,08,34,12.50
2018,07,18,08,35,12.50
2018,07,18,08,36,12.40
2018,07,18,08,37,12.40
2018,07,18,08,38,12.40
2018,07,18,08,39,12.40
2018,07,18,08,40,12.40
2018,07,18,08,41,12.40
2018,07,18,08,42,12.30
2018,07,18,08,43,12.30
2018,07,18,08,44,12.30
2018,07,18,08,45,12.40
2018,07,18,08,46,12.40
2018,07,18,08,47,12.30
2018,07,18,08,48,12.30
2018,07,18,08,49,12.30
2018,07,18,08,50,12.30
2018,07,18,08,51,12.40
2018,07,18,08,52,12.40
2018,07,18,08,53,12.50
2018,07,18,08,54,12.50
2018,07,18,08,55,12.50
2018,07,18,08,56,12.50
2018,07,18,08,57,12.60
2018,07,18,08,58,12.50
2018,07,18,08,59,12.50
2018,07,18,09,00,12.50
2018,07,18,09,01,12.60
2018,07,18,09,02,12.60
2018,07,18,09,03,12.60
2018,07,18,09,04,12.60
2018,07,18,09,05,12.70
2018,07,18,09,06,12.60
2018,07,18,09,07,12.60
2018,07,18,09,08,12.60
2018,07,18,09,09,12.60
2018,07,18,09,10,12.60
2018,07,18,09,11,12.70
2018,07,18,09,12,12.70
2018,07,18,09,13,12.80
2018,07,18,09,14,12.80
2018,07,18,09,15,12.80
2018,07,18,09,16,12.70
2018,07,18,09,17,12.70
2018,07,18,09,18,12.70
2018,07,18,09,19,12.60
2018,07,18,09,20,12.60
2018,07,18,09,21,12.50
2018,07,18,09,22,12.50
2018,07,18,09,23,12.60
2018,07,18,09,24,12.60
2018,07,18,09,25,12.60
2018,07,18,09,26,12.60
2018,07,18,09,27,12.60
2018,07,18,09,28,12.50
2018,07,18,09,29,12.50
2018,07,18,09,30,12.60
2018,07,18,09,31,12.50
2018,07,18,09,32,12.50
2018,07,18,09,33,12.50
2018,07,18,09,34,12.50
2018,07,18,09,35,12.60
2018,07,18,09,36,12.70
2018,07,18,09,37,12.80
2018,07,18,09,38,12.80
2018,07,18,09,39,12.80
2018,07,18,09,40,12.80
2018,07,18,09,41,12.80
2018,07,18,09,42,12.80
2018,07,18,09,43,12.80
2018,07,18,09,44,12.90
2018,07,18,09,45,12.90
2018,07,18,09,46,12.90
2018,07,18,09,47,12.90
2018,07,18,09,48,13.00
2018,07,18,09,49,13.10
2018,07,18,09,50,13.10
2018,07,18,09,51,13.10
2018,07,18,09,52,13.10
2018,07,18,09,53,13.20
2018,07,18,09,54,13.20
2018,07,18,09,55,13.30
2018,07,18,09,56,13.30
2018,07,18,09,57,13.40
2018,07,18,09,58,13.40
2018,07,18,09,59,13.40
2018,07,18,10,00,13.50
2018,07,18,10,01,13.60
2018,07,18,10,02,13.70
2018,07,18,10,03,13.70
2018,07,18,10,04,13.60
2018,07,18,10,05,13.60
2018,07,18,10,06,13.70
2018,07,18,10,07,13.70
2018,07,18,10,08,13.70
2018,07,18,10,09,13.60
2018,07,18,10,10,13.60
2018,07,18,10,11,13.60
2018,07,18,10,12,13.60
2018,07,18,10,13,13.70
2018,07,18,10,14,13.70
2018,07,18,10,15,13.80
2018,07,18,10,16,13.90
2018,07,18,10,17,14.00
2018,07,18,10,18,14.00
2018,07,18,10,19,14.00
2018,07,18,10,20,14.00
2018,07,18,10,21,14.10
2018,07,18,10,22,14.20
2018,07,18,10,23,14.20
2018,07,18,10,24,14.30
2018,07,18,10,25,14.30
2018,07,18,10,26,14.30
2018,07,18,10,27,14.20
2018,07,18,10,28,14.10
2018,07,18,10,29,14.10
2018,07,18,10,30,14.20
2018,07,18,10,31,14.30
2018,07,18,10,32,14.40
2018,07,18,10,33,14.40
2018,07,18,10,34,14.40
2018,07,18,10,35,14.40
2018,07,18,10,36,14.40
2018,07,18,10,37,14.30
2018,07,18,10,38,14.40
2018,07,18,10,39,14.30
2018,07,18,10,40,14.30
2018,07,18,10,41,14.30
2018,07,18,10,42,14.30
2018,07,18,10,43,14.30
2018,07,18,10,44,14.30
2018,07,18,10,45,14.40
2018,07,18,10,46,14.40
2018,07,18,10,47,14.40
2018,07,18,10,48,14.50
2018,07,18,10,49,14.60
2018,07,18,10,50,14.50
2018,07,18,10,51,14.40
2018,07,18,10,52,14.40
2018,07,18,10,53,14.50
2018,07,18,10,54,14.50
2018,07,18,10,55,14.40
2018,07,18,10,56,14.40
2018,07,18,10,57,14.40
2018,07,18,10,58,14.50
2018,07,18,10,59,14.60
2018,07,18,11,00,14.50
2018,07,18,11,01,14.40
2018,07,18,11,02,14.40
2018,07,18,11,03,14.30
2018,07,18,11,04,14.30
2018,07,18,11,05,14.20
2018,07,18,11,06,14.20
2018,07,18,11,07,14.30
2018,07,18,11,08,14.30
2018,07,18,11,09,14.30
2018,07,18,11,10,14.30
2018,07,18,11,11,14.20
2018,07,18,11,12,14.20
2018,07,18,11,13,14.10
2018,07,18,11,14,14.20
2018,07,18,11,15,14.20
2018,07,18,11,16,14.20
2018,07,18,11,17,14.20
2018,07,18,11,18,14.20
2018,07,18,11,19,14.20
2018,07,18,11,20,14.20
2018,07,18,11,21,14.20
2018,07,18,11,22,14.20
2018,07,18,11,23,14.20
2018,07,18,11,24,14.10
2018,07,18,11,25,14.20
2018,07,18,11,26,14.20
2018,07,18,11,27,14.30
2018,07,18,11,28,14.40
2018,07,18,11,29,14.50
2018,07,18,11,30,14.50
2018,07,18,11,31,14.60
2018,07,18,11,32,14.70
2018,07,18,11,33,14.70
2018,07,18,11,34,14.70
2018,07,18,11,35,14.80
2018,07,18,11,36,14.80
2018,07,18,11,37,14.80
2018,07,18,11,38,14.90
2018,07,18,11,39,14.90
2018,07,18,11,40,14.90
2018,07,18,11,41,15.00
2018,07,18,11,42,15.10
2018,07,18,11,43,15.10
2018,07,18,11,44,15.10
2018,07,18,11,45,15.10
2018,07,18,11,46,15.20
2018,07,18,11,47,15.20
2018,07,18,11,48,15.10
2018,07,18,11,49,15.10
2018,07,18,11,50,15.10
2018,07,18,11,51,15.20
2018,07,18,11,52,15.20
2018,07,18,11,53,15.30
2018,07,18,11,54,15.30
2018,07,18,11,55,15.20
2018,07,18,11,56,15.20
2018,07,18,11,57,15.20
2018,07,18,11,58,15.20
2018,07,18,11,59,15.30
2018,07,18,12,00,15.30
2018,07,18,12,01,15.40
2018,07,18,12,02,15.40
2018,07,18,12,03,15.50
2018,07,18,12,04,15.60
2018,07,18,12,05,15.60
2018,07,18,12,06,15.60
2018,07,18,12,07,15.70
2018,07,18,12,08,15.80
2018,07,18,12,09,15.80
2018,07,18,12,10,15.90
2018,07,18,12,11,16.00
2018,07,18,12,12,16.10
2018,07,18,12,13,16.20
2018,07,18,12,14,16.30
2018,07,18,12,15,16.40
2018,07,18,12,16,16.50
2018,07,18,12,17,16.70
2018,07,18,12,18,16.70
2018,07,18,12,19,16.70
2018,07,18,12,20,16.70
2018,07,18,12,21,16.80
2018,07,18,12,22,16.80
2018,07,18,12,23,16.90
2018,07,18,12,24,17.00
2018,07,18,12,25,17.10
2018,07,18,12,26,17.20
2018,07,18,12,27,17.30
2018,07,18,12,28,17.40
2018,07,18,12,29,17.50
2018,07,18,12,30,17.70
2018,07,18,12,31,17.80
2018,07,18,12,32,18.00
2018,07,18,12,33,18.10
2018,07,18,12,34,18.30
2018,07,18,12,35,18.40
2018,07,18,12,36,18.60
2018,07,18,12,37,18.70
2018,07,18,12,38,18.80
2018,07,18,12,39,18.90
2018,07,18,12,40,19.00
2018,07,18,12,41,19.10
2018,07,18,12,42,19.20
2018,07,18,12,43,19.30
2018,07,18,12,44,19.40
2018,07,18,12,45,19.50
2018,07,18,12,46,19.60
2018,07,18,12,47,19.70
2018,07,18,12,48,19.80
2018,07,18,12,49,19.90
2018,07,18,12,50,20.10
2018,07,18,12,51,20.20
2018,07,18,12,52,20.30
2018,07,18,12,53,20.40
2018,07,18,12,54,20.40
2018,07,18,12,55,20.40
2018,07,18,12,56,20.40
2018,07,18,12,57,20.40
2018,07,18,12,58,20.40
2018,07,18,12,59,20.30
2018,07,18,13,00,20.30
2018,07,18,13,01,20.20
2018,07,18,13,02,20.20
2018,07,18,13,03,20.20
2018,07,18,13,04,20.10
2018,07,18,13,05,20.10
2018,07,18,13,06,20.10
2018,07,18,13,07,20.10
2018,07,18,13,08,20.20
2018,07,18,13,09,20.30
2018,07,18,13,10,20.30
2018,07,18,13,11,20.30
2018,07,18,13,12,20.20
2018,07,18,13,13,20.20
2018,07,18,13,14,20.10
2018,07,18,13,15,20.00
2018,07,18,13,16,20.10
2018,07,18,13,17,20.10
2018,07,18,13,18,20.10
2018,07,18,13,19,20.00
2018,07,18,13,20,20.10
2018,07,18,13,21,20.10
2018,07,18,13,22,20.10
2018,07,18,13,23,20.10
2018,07,18,13,24,20.10
2018,07,18,13,25,20.20
2018,07,18,13,26,20.30
2018,07,18,13,27,20.50
2018,07,18,13,28,20.60
2018,07,18,13,29,20.60
2018,07,18,13,30,20.70
2018,07,18,13,31,20.70
2018,07,18,13,32,20.70
2018,07,18,13,33,20.60
2018,07,18,13,34,20.60
2018,07,18,13,35,20.60
2018,07,18,13,36,20.60
2018,07,18,13,37,20.60
2018,07,18,13,38,20.70
2018,07,18,13,39,20.80
2018,07,18,13,40,20.80
2018,07,18,13,41,20.70
2018,07,18,13,42,20.70
2018,07,18,13,43,20.80
2018,07,18,13,44,20.80
2018,07,18,13,45,20.80
2018,07,18,13,46,20.90
2018,07,18,13,47,20.90
2018,07,18,13,48,20.80
2018,07,18,13,49,20.80
2018,07,18,13,50,20.80
2018,07,18,13,51,20.90
2018,07,18,13,52,21.00
2018,07,18,13,53,21.00
2018,07,18,13,54,21.00
2018,07,18,13,55,21.00
2018,07,18,13,56,21.00
2018,07,18,13,57,21.10
2018,07,18,13,58,21.10
2018,07,18,13,59,21.10
2018,07,18,14,00,21.20
2018,07,18,14,01,21.20
2018,07,18,14,02,21.30
2018,07,18,14,03,21.30
2018,07,18,14,04,21.30
2018,07,18,14,05,21.30
2018,07,18,14,06,21.30
2018,07,18,14,07,21.30
2018,07,18,14,08,21.40
2018,07,18,14,09,21.50
2018,07,18,14,10,21.60
2018,07,18,14,11,21.70
2018,07,18,14,12,21.80
2018,07,18,14,13,21.80
2018,07,18,14,14,21.80
2018,07,18,14,15,21.80
2018,07,18,14,16,21.80
2018,07,18,14,17,21.90
2018,07,18,14,18,21.90
2018,07,18,14,19,21.90
2018,07,18,14,20,22.00
2018,07,18,14,21,22.20
2018,07,18,14,22,22.20
2018,07,18,14,23,22.20
2018,07,18,14,24,22.30
2018,07,18,14,25,22.30
2018,07,18,14,26,22.30
2018,07,18,14,27,22.40
2018,07,18,14,28,22.50
2018,07,18,14,29,22.50
2018,07,18,14,30,22.60
2018,07,18,14,31,22.70
2018,07,18,14,32,22.70
2018,07,18,14,33,22.80
2018,07,18,14,34,22.80
2018,07,18,14,35,22.70
2018,07,18,14,36,22.80
2018,07,18,14,37,22.80
2018,07,18,14,38,22.80
2018,07,18,14,39,22.80
2018,07,18,14,40,22.90
2018,07,18,14,41,23.00
2018,07,18,14,42,23.10
2018,07,18,14,43,23.10
2018,07,18,14,44,23.10
2018,07,18,14,45,23.10
2018,07,18,14,46,23.10
2018,07,18,14,47,23.00
2018,07,18,14,48,22.90
2018,07,18,14,49,22.80
2018,07,18,14,50,22.70
2018,07,18,14,51,22.60
2018,07,18,14,52,22.40
2018,07,18,14,53,22.40
2018,07,18,14,54,22.30
2018,07,18,14,55,22.30
2018,07,18,14,56,22.40
2018,07,18,14,57,22.40
2018,07,18,14,58,22.50
2018,07,18,14,59,22.60
2018,07,18,15,00,22.70
2018,07,18,15,01,22.70
2018,07,18,15,02,22.70
2018,07,18,15,03,22.70
2018,07,18,15,04,22.90
2018,07,18,15,05,23.00
2018,07,18,15,06,23.20
2018,07,18,15,07,23.30
2018,07,18,15,08,23.30
2018,07,18,15,09,23.40
2018,07,18,15,10,23.30
2018,07,18,15,11,23.20
2018,07,18,15,12,23.10
2018,07,18,15,13,23.10
2018,07,18,15,14,23.10
2018,07,18,15,15,23.10
2018,07,18,15,16,23.00
2018,07,18,15,17,22.90
2018,07,18,15,18,22.90
2018,07,18,15,19,22.90
2018,07,18,15,20,22.90
2018,07,18,15,21,22.90
2018,07,18,15,22,22.80
2018,07,18,15,23,22.70
2018,07,18,15,24,22.70
2018,07,18,15,25,22.70
2018,07,18,15,26,22.70
2018,07,18,15,27,22.70
2018,07,18,15,28,22.80
2018,07,18,15,29,22.80
2018,07,18,15,30,22.70
2018,07,18,15,31,22.60
2018,07,18,15,32,22.40
2018,07,18,15,33,22.20
2018,07,18,15,34,21.90
2018,07,18,15,35,21.70
2018,07,18,15,36,21.60
2018,07,18,15,37,21.50
2018,07,18,15,38,21.30
2018,07,18,15,39,21.30
2018,07,18,15,40,21.30
2018,07,18,15,41,21.30
2018,07,18,15,42,21.30
2018,07,18,15,43,21.20
2018,07,18,15,44,21.10
2018,07,18,15,45,21.10
2018,07,18,15,46,21.10
2018,07,18,15,47,21.10
2018,07,18,15,48,21.00
2018,07,18,15,49,20.90
2018,07,18,15,50,20.80
2018,07,18,15,51,20.80
2018,07,18,15,52,20.80
2018,07,18,15,53,20.90
2018,07,18,15,54,20.90
2018,07,18,15,55,20.90
2018,07,18,15,56,20.80
2018,07,18,15,57,20.80
2018,07,18,15,58,20.80
2018,07,18,15,59,20.80
2018,07,18,16,00,20.80
2018,07,18,16,01,20.90
2018,07,18,16,02,20.90
2018,07,18,16,03,20.90
2018,07,18,16,04,20.80
2018,07,18,16,05,20.80
2018,07,18,16,06,20.80
2018,07,18,16,07,20.70
2018,07,18,16,08,20.70
2018,07,18,16,09,20.80
2018,07,18,16,10,20.80
2018,07,18,16,11,20.80
2018,07,18,16,12,20.80
2018,07,18,16,13,20.80
2018,07,18,16,14,20.80
2018,07,18,16,15,20.80
2018,07,18,16,16,20.80
2018,07,18,16,17,20.70
2018,07,18,16,18,20.70
2018,07,18,16,19,20.60
2018,07,18,16,20,20.60
2018,07,18,16,21,20.60
2018,07,18,16,22,20.50
2018,07,18,16,23,20.50
2018,07,18,16,24,20.40
2018,07,18,16,25,20.30
2018,07,18,16,26,20.30
2018,07,18,16,27,20.20
2018,07,18,16,28,20.20
2018,07,18,16,29,20.10
2018,07,18,16,30,20.20
2018,07,18,16,31,20.20
2018,07,18,16,32,20.20
2018,07,18,16,33,20.20
2018,07,18,16,34,20.30
2018,07,18,16,35,20.20
2018,07,18,16,36,20.20
2018,07,18,16,37,20.20
2018,07,18,16,38,20.30
2018,07,18,16,39,20.20
2018,07,18,16,40,20.20
2018,07,18,16,41,20.00
2018,07,18,16,42,20.00
2018,07,18,16,43,20.00
2018,07,18,16,44,20.00
2018,07,18,16,45,19.90
2018,07,18,16,46,19.80
2018,07,18,16,47,19.80
2018,07,18,16,48,19.80
2018,07,18,16,49,19.80
2018,07,18,16,50,19.80
2018,07,18,16,51,19.80
2018,07,18,16,52,19.90
2018,07,18,16,53,20.00
2018,07,18,16,54,20.00
2018,07,18,16,55,19.90
2018,07,18,16,56,19.90
2018,07,18,16,57,19.90
2018,07,18,16,58,19.90
2018,07,18,16,59,19.80
2018,07,18,17,00,19.80
2018,07,18,17,01,19.70
2018,07,18,17,02,19.70
2018,07,18,17,03,19.60
2018,07,18,17,04,19.60
2018,07,18,17,05,19.60
2018,07,18,17,06,19.60
2018,07,18,17,07,19.60
2018,07,18,17,08,19.70
2018,07,18,17,09,19.70
2018,07,18,17,10,19.70
2018,07,18,17,11,19.60
2018,07,18,17,12,19.70
2018,07,18,17,13,19.60
2018,07,18,17,14,19.50
2018,07,18,17,15,19.50
2018,07,18,17,16,19.60
2018,07,18,17,17,19.50
2018,07,18,17,18,19.50
2018,07,18,17,19,19.50